Wind_Speed
8 8 9 8 9 10 11 12 12 12 13 14 14 13 13 12 12 11 11 10 10 9 8 8 7 7 6 6 6 5 5 5 6 6 6 7 7 8 8 9 8 8 9
9 9 9 9 9 10 11 11 11 12 11 12 13 13 12 12 11 11 10 10 9 8 8 7 7 7 6 5 5 5 5 5 6 6 6 7 7 7 8 8 7 8 8
8 8 9 9 9 10 10 10 10 11 11 12 12 12 11 11 10 10 10 9 8 7 7 7 7 6 6 5 5 5 5 5 5 6 6 6 7 7 7 7 7 8 8
7 7 8 8 9 9 9 10 10 11 11 11 11 11 10 10 9 9 8 8 8 7 6 7 6 6 5 5 5 5 5 5 5 6 5 6 6 6 6 7 7 7 7
7 7 8 8 8 9 9 9 10 10 10 10 10 10 9 9 8 8 8 7 7 7 6 7 6 5 5 5 5 6 5 5 5 6 5 5 5 5 6 6 6 6 6
6 7 7 7 8 8 9 9 9 10 10 9 9 9 9 8 8 8 7 7 6 6 6 6 6 5 5 5 5 5 5 5 5 5 5 5 5 5 5 5 5 5 6
5 6 6 6 7 8 8 9 9 9 9 9 9 8 8 7 7 7 7 7 6 6 6 5 5 5 5 5 5 5 5 4 4 4 4 4 5 4 4 4 4 4 4
4 4 5 6 7 7 7 8 9 9 9 9 8 8 8 7 7 7 6 6 6 6 5 5 4 4 5 5 5 4 4 4 3 3 4 4 4 3 3 3 3 3 3
3 2 3 5 6 6 7 8 9 9 9 9 8 8 8 7 7 6 6 5 5 5 5 4 4 4 4 4 4 3 4 3 3 3 3 3 3 3 3 3 3 3 3
3 2 2 4 5 5 6 7 8 8 9 9 8 8 7 7 6 5 5 5 5 5 4 4 4 4 4 4 3 3 3 3 3 3 3 3 3 3 2 3 2 2 2
3 1 1 3 4 4 6 7 8 8 9 9 9 8 8 7 6 5 5 5 5 4 4 4 4 4 4 3 3 3 3 3 3 3 3 3 3 2 2 2 2 2 1
4 3 0 2 4 4 6 7 8 8 9 9 9 9 8 7 6 5 4 5 5 5 4 4 4 4 4 3 3 3 2 3 3 3 3 3 2 2 2 2 2 1 1
5 4 2 1 3 4 6 8 8 8 10 10 9 9 9 8 7 5 4 5 5 4 4 4 4 4 4 3 3 2 2 3 2 2 2 2 2 2 1 2 2 2 1
5 5 4 3 4 3 5 7 8 9 10 10 10 10 9 8 7 6 5 5 5 4 4 4 4 4 3 3 2 2 2 2 2 2 2 2 2 2 2 2 2 2 2
5 6 5 5 4 4 5 7 8 9 10 10 10 10 10 9 8 6 5 5 4 4 4 5 4 4 3 3 2 2 2 2 2 2 2 2 2 2 2 2 3 3 3
6 6 5 5 4 5 6 6 8 10 11 11 11 11 11 10 8 7 5 5 5 4 4 5 5 4 4 3 3 2 2 2 2 2 2 2 2 2 2 3 3 3 3
7 7 6 6 5 5 6 6 8 10 11 12 11 12 11 11 9 8 6 6 5 5 4 4 4 4 4 3 3 3 3 2 2 2 2 2 2 2 2 3 3 3 3
9 8 7 7 7 6 5 7 8 10 11 11 12 13 13 12 10 9 7 6 6 5 5 5 4 4 4 4 4 3 3 3 3 3 3 3 3 3 3 3 3 4 4
9 8 8 8 8 6 5 6 8 9 11 11 11 12 13 13 12 10 9 8 6 6 5 5 5 5 5 5 4 4 4 3 4 3 3 3 3 4 4 4 4 4 4
9 9 9 8 8 5 4 6 8 9 10 11 11 12 13 13 13 12 10 9 8 7 6 6 5 5 6 6 5 5 5 5 5 5 4 4 4 5 5 5 5 5 5
10 9 9 9 8 6 5 6 8 8 10 11 11 11 12 12 13 12 11 10 9 8 7 7 6 6 6 6 6 6 6 6 7 7 6 6 6 6 7 7 7 7 7
10 10 10 9 9 7 6 5 7 8 9 10 11 12 12 13 14 13 12 11 10 9 8 8 8 8 7 7 7 7 8 8 8 8 8 8 8 8 8 8 8 8 8
11 10 9 9 9 7 7 5 6 7 8 10 11 13 13 13 14 15 13 12 11 11 10 9 9 9 9 9 9 9 9 9 9 10 10 10 9 9 9 9 9 9 10
11 10 9 9 8 7 7 5 5 5 8 10 12 13 14 14 15 15 14 13 12 12 11 11 11 11 11 11 10 11 11 11 11 11 12 11 11 11 11 11 11 12 12
11 11 10 9 9 8 7 6 6 7 8 10 11 12 14 14 15 15 15 14 13 13 12 12 12 12 13 12 12 12 12 13 13 14 14 13 13 13 13 13 13 13 14
12 11 10 10 10 9 7 7 7 7 8 10 10 12 13 14 15 15 15 15 15 14 14 13 13 13 14 14 14 14 14 14 15 16 16 15 15 16 15 15 15 16 16
Wind_Direction
135 130 128 130 133 136 136 132 129 129 128 125 122 119 114 112 110 109 108 108 108 105 101 99 99 96 94 91 89 93 99 107 109 111 113 111 111 115 117 115 113 113 109
136 134 132 133 136 138 138 135 132 131 129 126 123 119 115 113 111 111 110 109 109 107 103 102 101 98 98 97 95 95 103 110 111 115 118 116 116 119 120 118 117 115 111
136 139 140 139 139 144 143 139 133 132 129 127 124 120 117 115 113 113 112 111 110 111 106 104 102 101 101 101 100 101 108 110 113 116 115 120 119 121 124 122 122 117 114
136 139 142 144 146 148 147 144 141 135 131 128 124 121 120 119 117 116 115 115 112 109 113 107 103 102 104 105 107 108 110 109 106 114 112 117 116 120 122 122 121 117 118
133 141 143 150 154 153 153 151 148 143 138 136 132 127 125 121 119 119 119 119 114 110 111 109 106 104 106 108 113 117 115 108 107 111 108 114 117 120 124 128 121 118 117
127 142 146 153 158 162 162 159 154 151 148 145 140 133 130 127 122 119 119 120 117 116 116 112 111 107 108 112 118 121 120 115 115 115 114 118 120 123 128 133 128 126 122
114 136 152 159 165 167 169 167 167 163 158 153 148 142 140 134 129 124 123 123 122 122 121 116 115 115 113 114 119 125 123 126 123 120 125 130 128 126 127 134 133 127 126
108 141 161 174 179 181 179 175 172 169 164 161 156 151 149 145 139 134 129 128 129 127 125 123 123 122 124 121 124 127 129 133 133 131 134 139 138 133 132 139 130 118 126
87 137 170 187 185 188 187 180 175 176 174 169 166 159 153 150 144 137 134 132 132 132 132 131 132 132 133 131 131 133 134 139 146 141 147 149 146 140 135 146 137 122 116
56 125 161 194 193 192 183 176 176 181 183 179 175 166 159 154 149 142 137 136 135 137 137 137 138 141 141 135 128 131 137 140 154 154 160 160 158 151 143 147 146 126 114
50 72 187 195 203 205 191 188 187 188 187 183 182 176 169 163 158 151 142 142 140 138 137 139 139 142 146 136 129 132 138 144 152 156 166 170 167 163 163 160 157 146 132
40 26 301 203 216 225 207 198 199 199 192 189 187 183 178 174 169 161 152 150 146 140 140 143 141 146 148 147 143 142 142 146 155 159 168 171 173 169 181 181 183 196 226
20 14 11 282 247 242 215 207 205 201 199 196 193 190 187 185 181 171 163 156 152 146 145 148 148 150 151 153 156 154 158 152 157 169 175 186 197 192 196 202 215 240 251
3 350 329 317 273 254 221 216 207 202 201 202 200 197 194 193 190 183 174 164 161 158 156 157 155 156 159 164 167 160 166 176 189 192 192 198 210 226 238 243 259 265 261
346 345 330 309 277 256 234 217 215 209 205 205 205 202 197 194 192 190 179 176 173 165 163 166 167 168 168 171 177 171 173 185 196 216 215 212 224 241 259 266 274 263 268
343 338 335 320 293 264 245 229 219 213 211 209 209 205 201 198 195 191 187 184 183 177 174 175 178 179 180 184 188 194 191 199 211 221 219 222 236 261 279 274 281 286 281
341 331 329 319 314 283 260 231 217 216 216 213 212 209 207 204 201 195 194 194 194 193 188 187 188 193 194 193 199 206 210 211 213 214 221 228 243 264 274 275 277 283 289
334 328 328 326 316 297 263 234 222 219 217 215 214 212 210 209 207 204 201 200 201 203 201 202 206 204 200 199 204 209 210 217 219 218 223 232 247 266 270 278 278 278 286
335 330 326 324 317 298 262 235 226 219 214 212 215 216 217 215 214 213 209 208 207 205 206 210 215 212 207 208 212 213 213 215 216 220 228 244 257 270 276 280 285 293 290
337 330 324 321 320 306 262 236 227 222 216 214 216 220 223 219 217 217 216 213 212 209 209 214 220 223 220 219 220 224 228 229 231 232 237 249 260 269 276 279 280 286 288
338 330 323 320 315 301 276 244 231 225 222 221 219 220 223 222 219 220 219 217 219 217 216 221 226 227 227 228 232 236 238 243 242 241 247 255 262 267 272 275 273 276 277
337 334 328 319 314 303 293 262 240 232 225 224 222 221 222 221 220 221 221 220 223 226 226 229 232 232 234 237 242 247 246 248 247 249 253 258 264 270 274 276 276 273 274
336 332 325 320 315 303 294 271 247 235 233 228 223 220 221 222 222 221 222 223 226 232 233 236 238 240 241 243 247 252 254 254 252 255 259 263 266 270 273 275 276 277 276
334 333 326 320 317 305 295 273 250 240 231 231 227 226 227 225 224 221 221 225 230 236 240 244 247 247 247 249 252 255 256 256 257 258 261 264 267 270 273 273 274 274 273
332 331 328 323 316 303 292 281 264 246 240 239 236 231 231 228 226 222 226 231 236 242 247 249 250 251 251 253 256 258 259 258 259 259 261 262 265 269 273 274 274 275 275
332 329 328 321 315 303 285 280 270 253 245 242 239 232 233 230 228 227 231 236 241 247 249 249 252 254 254 256 258 259 260 260 262 262 263 265 267 268 270 273 276 276 275
Height
5902 5902 5903 5904 5904 5905 5906 5907 5908 5908 5909 5909 5909 5909 5910 5911 5911 5911 5912 5912 5913 5913 5913 5913 5913 5914 5914 5914 5914 5913 5913 5913 5913 5913 5913 5913 5913 5913 5913 5914 5914 5914 5914
5903 5903 5904 5905 5905 5906 5907 5908 5908 5909 5910 5910 5910 5910 5911 5911 5912 5912 5913 5913 5913 5914 5914 5914 5914 5915 5915 5915 5914 5914 5914 5914 5914 5914 5914 5914 5914 5914 5914 5915 5915 5915 5915
5904 5904 5904 5905 5906 5907 5908 5909 5909 5910 5910 5911 5911 5911 5912 5912 5912 5913 5913 5913 5914 5914 5915 5915 5915 5915 5915 5915 5915 5915 5915 5915 5915 5915 5915 5915 5915 5915 5915 5915 5916 5916 5916
5904 5904 5905 5906 5907 5908 5909 5910 5910 5911 5911 5911 5912 5912 5912 5913 5913 5914 5914 5914 5914 5915 5915 5915 5915 5916 5916 5916 5916 5916 5916 5916 5916 5916 5915 5915 5916 5916 5916 5917 5917 5917 5917
5905 5905 5906 5907 5908 5909 5909 5910 5911 5911 5912 5912 5912 5913 5913 5913 5914 5914 5914 5915 5915 5915 5916 5916 5916 5916 5916 5916 5916 5916 5917 5916 5917 5917 5916 5917 5917 5917 5917 5918 5918 5918 5918
5905 5906 5906 5907 5908 5909 5910 5911 5911 5911 5912 5912 5913 5913 5913 5914 5914 5915 5915 5915 5915 5916 5916 5916 5916 5917 5917 5917 5917 5917 5917 5917 5918 5918 5917 5918 5918 5918 5918 5918 5919 5919 5919
5905 5906 5907 5907 5908 5909 5910 5910 5911 5911 5912 5913 5913 5913 5914 5914 5915 5915 5915 5915 5916 5916 5916 5916 5917 5917 5917 5917 5918 5918 5918 5918 5918 5918 5918 5919 5919 5919 5919 5919 5920 5920 5920
5906 5906 5907 5907 5908 5909 5909 5910 5910 5911 5912 5912 5913 5913 5914 5914 5915 5915 5915 5915 5916 5916 5916 5917 5917 5917 5918 5918 5918 5919 5919 5919 5919 5919 5919 5919 5919 5920 5920 5920 5920 5921 5921
5906 5906 5906 5907 5907 5908 5908 5909 5910 5911 5911 5912 5913 5913 5914 5914 5915 5915 5916 5916 5916 5916 5916 5917 5917 5917 5918 5918 5918 5919 5919 5919 5919 5919 5920 5920 5920 5921 5921 5921 5921 5921 5921
5906 5906 5906 5907 5907 5907 5908 5908 5909 5910 5911 5912 5913 5913 5914 5914 5915 5915 5915 5916 5916 5916 5916 5917 5917 5917 5918 5918 5919 5919 5919 5919 5920 5920 5920 5920 5920 5921 5921 5921 5921 5922 5922
5906 5906 5906 5906 5906 5906 5907 5907 5908 5909 5910 5911 5912 5913 5914 5914 5915 5915 5915 5916 5916 5916 5916 5917 5917 5917 5918 5918 5919 5919 5919 5919 5920 5920 5920 5920 5921 5921 5921 5921 5922 5922 5922
5906 5906 5905 5905 5905 5905 5906 5906 5907 5908 5909 5910 5911 5912 5913 5914 5914 5915 5915 5916 5916 5916 5916 5917 5917 5917 5918 5918 5918 5919 5919 5919 5920 5920 5920 5920 5921 5921 5921 5921 5922 5922 5922
5906 5906 5905 5905 5904 5904 5904 5905 5906 5907 5908 5909 5910 5912 5913 5913 5914 5915 5915 5915 5916 5916 5916 5916 5917 5917 5918 5918 5919 5919 5919 5919 5920 5920 5920 5921 5921 5921 5921 5921 5922 5922 5922
5906 5905 5904 5904 5903 5903 5903 5904 5905 5906 5907 5908 5909 5911 5912 5913 5914 5914 5915 5915 5915 5916 5916 5916 5917 5918 5918 5918 5919 5919 5919 5920 5920 5920 5920 5921 5921 5921 5921 5921 5921 5921 5921
5906 5905 5903 5903 5902 5902 5902 5903 5903 5905 5906 5907 5909 5910 5911 5912 5913 5913 5914 5915 5915 5916 5916 5917 5917 5917 5918 5918 5919 5919 5919 5919 5920 5920 5920 5920 5921 5921 5921 5921 5921 5921 5921
5905 5904 5903 5902 5901 5901 5901 5901 5902 5903 5904 5906 5907 5909 5910 5911 5912 5913 5914 5915 5915 5916 5916 5916 5917 5917 5918 5918 5918 5919 5919 5919 5919 5920 5920 5920 5920 5920 5920 5920 5920 5920 5920
5905 5904 5902 5901 5900 5900 5899 5900 5900 5901 5903 5904 5906 5908 5909 5911 5912 5912 5913 5914 5915 5915 5916 5916 5917 5917 5918 5918 5918 5919 5919 5919 5919 5920 5920 5920 5920 5920 5920 5920 5920 5920 5920
5905 5903 5902 5901 5899 5898 5898 5898 5899 5900 5901 5902 5904 5906 5908 5910 5911 5912 5913 5914 5914 5915 5915 5916 5916 5917 5917 5918 5918 5918 5918 5919 5919 5919 5919 5919 5920 5920 5919 5919 5919 5919 5919
5904 5903 5901 5900 5899 5897 5897 5897 5897 5898 5899 5901 5903 5905 5907 5908 5909 5911 5912 5913 5914 5914 5915 5915 5916 5916 5917 5917 5918 5918 5918 5918 5918 5919 5919 5919 5919 5919 5919 5919 5918 5918 5918
5903 5902 5900 5899 5897 5896 5895 5895 5896 5897 5898 5899 5901 5903 5905 5906 5908 5909 5911 5912 5913 5914 5914 5915 5915 5916 5916 5917 5917 5917 5917 5917 5918 5918 5918 5918 5918 5918 5918 5918 5918 5917 5917
5903 5901 5899 5898 5896 5895 5894 5894 5894 5895 5896 5898 5899 5901 5902 5904 5906 5908 5909 5911 5912 5913 5913 5914 5914 5915 5915 5916 5916 5917 5917 5917 5917 5917 5917 5917 5917 5917 5917 5917 5916 5916 5916
5902 5900 5898 5896 5895 5894 5894 5893 5893 5894 5895 5896 5897 5899 5900 5902 5904 5906 5908 5909 5910 5911 5912 5913 5913 5913 5914 5914 5915 5915 5916 5917 5916 5916 5916 5916 5916 5916 5916 5915 5915 5915 5915
5901 5899 5897 5896 5895 5893 5892 5892 5892 5892 5893 5894 5895 5897 5898 5900 5902 5903 5905 5907 5909 5910 5910 5911 5912 5912 5913 5913 5914 5914 5915 5915 5915 5915 5915 5915 5915 5915 5914 5914 5913 5913 5913
5901 5899 5897 5895 5894 5892 5891 5891 5890 5891 5891 5892 5893 5895 5896 5897 5899 5901 5903 5905 5907 5908 5909 5909 5910 5910 5911 5911 5912 5912 5913 5913 5913 5913 5913 5913 5913 5912 5912 5912 5911 5911 5910
5900 5898 5896 5894 5893 5891 5890 5890 5889 5889 5889 5890 5891 5893 5894 5895 5897 5898 5900 5903 5904 5905 5906 5907 5907 5908 5908 5909 5909 5910 5910 5910 5910 5911 5911 5911 5910 5910 5910 5909 5909 5908 5908
5899 5897 5895 5893 5892 5890 5889 5888 5888 5887 5888 5888 5889 5890 5891 5893 5894 5896 5898 5900 5901 5903 5904 5904 5905 5905 5906 5906 5906 5907 5907 5907 5907 5907 5907 5907 5907 5907 5907 5906 5906 5905 5904